TimePDT,TemperatureF,Dew PointF,Humidity,Sea Level PressureIn,VisibilityMPH,Wind Direction,Wind SpeedMPH,Gust SpeedMPH,PrecipitationIn,Events,Conditions,WindDirDegrees,DateUTC
12:53 AM,37.0,34.0,89,30.41,8.0,Calm,Calm,-,N/A,,Mostly Cloudy,0,2013-03-23 07:53:00
1:53 AM,36.0,34.0,93,30.41,10.0,Calm,Calm,-,N/A,,Overcast,0,2013-03-23 08:53:00
2:53 AM,35.1,33.1,92,30.41,10.0,Calm,Calm,-,N/A,,Overcast,0,2013-03-23 09:53:00
3:53 AM,36.0,34.0,93,30.41,10.0,Calm,Calm,-,N/A,,Overcast,0,2013-03-23 10:53:00
4:53 AM,35.1,32.0,89,30.40,9.0,Calm,Calm,-,N/A,,Overcast,0,2013-03-23 11:53:00
5:53 AM,35.6,33.8,93,30.40,7.0,Calm,Calm,-,N/A,,Overcast,0,2013-03-23 12:53:00
6:53 AM,36.0,35.1,97,30.40,9.0,Calm,Calm,-,N/A,,Mostly Cloudy,0,2013-03-23 13:53:00
7:53 AM,36.0,35.1,97,30.40,8.0,Calm,Calm,-,N/A,,Overcast,0,2013-03-23 14:53:00
8:53 AM,37.0,35.1,93,30.41,9.0,Calm,Calm,-,N/A,,Overcast,0,2013-03-23 15:53:00
9:53 AM,39.0,36.0,89,30.40,6.0,Calm,Calm,-,N/A,,Overcast,0,2013-03-23 16:53:00
10:53 AM,39.9,35.1,83,30.40,9.0,SSW,3.5,-,N/A,,Overcast,210,2013-03-23 17:53:00
11:00 AM,39.2,33.8,81,30.40,10.0,Calm,Calm,-,N/A,,Partly Cloudy,0,2013-03-23 18:00:00
11:21 AM,41.0,35.6,81,30.40,10.0,Calm,Calm,-,N/A,,Overcast,0,2013-03-23 18:21:00
11:53 AM,43.0,35.1,74,30.40,10.0,NW,3.5,-,N/A,,Overcast,310,2013-03-23 18:53:00
12:53 PM,45.0,34.0,65,30.38,10.0,Calm,Calm,-,N/A,,Overcast,0,2013-03-23 19:53:00
1:53 PM,48.0,32.0,54,30.37,10.0,NNE,3.5,-,N/A,,Mostly Cloudy,30,2013-03-23 20:53:00
2:53 PM,46.9,30.0,52,30.34,10.0,Variable,3.5,-,N/A,,Mostly Cloudy,0,2013-03-23 21:53:00
3:53 PM,48.9,28.0,44,30.32,10.0,NW,4.6,-,N/A,,Mostly Cloudy,320,2013-03-23 22:53:00
4:53 PM,50.0,27.0,41,30.32,10.0,West,6.9,-,N/A,,Scattered Clouds,280,2013-03-23 23:53:00
5:53 PM,50.0,28.0,43,30.31,10.0,West,9.2,-,N/A,,Scattered Clouds,280,2013-03-24 00:53:00
6:53 PM,48.0,27.0,44,30.30,10.0,West,5.8,-,N/A,,Scattered Clouds,280,2013-03-24 01:53:00
7:53 PM,45.0,26.1,48,30.30,10.0,WNW,3.5,-,N/A,,Partly Cloudy,290,2013-03-24 02:53:00
8:53 PM,44.1,30.9,60,30.30,10.0,Calm,Calm,-,N/A,,Mostly Cloudy,0,2013-03-24 03:53:00
9:53 PM,42.1,30.0,62,30.31,10.0,Calm,Calm,-,N/A,,Mostly Cloudy,0,2013-03-24 04:53:00
10:53 PM,39.0,33.1,79,30.31,10.0,East,6.9,-,N/A,,Mostly Cloudy,100,2013-03-24 05:53:00
11:53 PM,39.0,34.0,82,30.30,10.0,ESE,4.6,-,N/A,,Scattered Clouds,120,2013-03-24 06:53:00